Weather in Vaganovo

Russia / Saint-Petersburg and Leningrad Oblast     60°05′13″N   31°01′11″E
temp.,
°C
wind,
m/s
gust,
m/s
humid.,
%
clouds,
%
prec.,
mm/h
press.,
hPa
HPBL,
m
18 april, sun
sun1800:00+4ne398643 0.0 1030181
03:00+3ne37945 0.0 1030146
06:00+2ne37935 0.0 1030142
09:00+6ne47705 0.0 1030270
12:00+9ne46595 0.0 1030527
15:00+10ne58551 0.0 1030617
18:00+9ne511605 0.0 1029389
21:00+7ene5127567 0.0 1030304
19 april, mon
mon1900:00+5ene3887100 0.0 1031207
03:00+4ne369299 0.0 1031162
06:00+2ene269515 0.0 1031140
09:00+5ene36695 0.0 1032392
12:00+8ne46510 0.0 1031842
15:00+8ne56450 0.0 1030787
18:00+7ne48520 0.0 1029363
21:00+4ene37700 0.0 1029116
20 april, tue
tue2000:00+3e39730 0.0 1029159
03:00+1ese24780 0.0 102864
06:00+1e26780 0.0 1027113
09:00+5e36585 0.0 1027425
12:00+8e464229 0.0 10251322
15:00+9ene4638100 0.0 10231526
18:00+8e364994 0.0 10201285
21:00+5ese257188 0.0 1019102
21 april, wed
wed2100:00+3ese388722 0.0 1018263
03:00+3ene3792100 0.0 1015215
06:00+4ne3892100 0.1 1012441
09:00+3ne4897100 1.3 1008541
12:00+2ne4896100 2.2 1006456
15:00+2ne3699100 5.3 1004235
18:00+1nne2399100 1.6 1003149
21:00+1nnw23100100 2.5 1003146
22 april, thu
thu2200:00+1wnw2599100 0.3 1004230
03:00+1w3798100 0.5 1005485
06:00+1w3998100 0.6 1006459
09:00+2wsw3897100 0.8 1008412
12:00+6wsw378097 0.1 1011876
15:00+9w466119 0.3 10121167
18:00+9ssw246712 0.0 1013534
21:00+5s2387100 0.0 101436